Home   Weather   Porto Alegre   Past weeks
Flag for Brazil

Past Weather in Porto Alegre, Rio Grande do Sul, Brazil — Yesterday and Last 2 Weeks

Now
59 °F

Light rain. Mostly cloudy.


Feels Like: 57 °F
Forecast: 62 / 58 °F
Wind: 12 mph from Southeast

Location: Porto Alegre Aero-Porto

Current Time: Oct 15, 2019 at 6:38:15 am

Latest Report: Oct 15, 2019 at 6:00 am


Visibility: 3 mi

Pressure: 30.24 "Hg

Humidity: 94%

Dew Point: 57 °F

Location of Porto AlegreLocation

Past Weather in Porto Alegre — Graph

°F

Porto Alegre Temperature Yesterday

Maximum temperature yesterday: 72 °F (at 12:00 am)
Minimum temperature yesterday: 55 °F (at 8:00 pm)
Average temperature yesterday: 63 °F

High & Low Weather Summary for the Past Weeks

 TemperatureHumidityPressure
High102 °F (Oct 12, 2:00 pm)100% (Sep 30, 5:06 am)30.30 "Hg (Sep 30, 5:06 am)
Low55 °F (Oct 14, 8:00 pm)20% (Oct 11, 3:00 pm)29.59 "Hg (Oct 1, 3:00 pm)
Average71 °F80%29.95 "Hg
* Reported Sep 30 5:06 am — Oct 15 5:00 am, Porto Alegre. Weather by CustomWeather, © 2019

Note: Actual official high and low records may vary slightly from our data, if they occured in-between our weather recording intervals... More about our weather records

Advertising

Porto Alegre Weather History for the Previous 24 Hours

Scroll right to see more
 ConditionsComfort  
Time TempWeatherWind HumidityBarometerVisibility
5:00 am
Tue, Oct 15
59 °FLight rain. Mostly cloudy.12 mph94%30.21 "Hg4 mi
4:00 am57 °FLight rain. Fog.16 mph100%30.21 "Hg2 mi
3:00 am57 °FLight rain. Fog.13 mph100%30.24 "Hg2 mi
2:00 am57 °FLight rain. Fog.13 mph94%30.21 "Hg2 mi
1:00 am57 °FLight rain. Mostly cloudy.12 mph100%30.21 "Hg4 mi
12:00 am57 °FLight rain. Mostly cloudy.12 mph100%30.21 "Hg3 mi
11:00 pm
Mon, Oct 14
55 °FLight rain. Mostly cloudy.13 mph100%30.24 "Hg3 mi
10:00 pm57 °FLight rain. Mostly cloudy.16 mph94%30.27 "Hg3 mi
9:00 pm57 °FRain. Mostly cloudy.15 mph94%30.30 "Hg3 mi
8:00 pm55 °FRain. Mostly cloudy.12 mph94%30.27 "Hg3 mi
7:00 pm57 °FLight rain. Mostly cloudy.16 mph88%30.24 "Hg3 mi
6:00 pm59 °FLight rain. Mostly cloudy.9 mph94%30.24 "Hg4 mi
5:00 pm59 °FMostly cloudy.12 mph94%30.21 "Hg5 mi
4:25 pm59 °FLight rain. Mostly cloudy.14 mph94%30.21 "Hg4 mi
4:00 pm59 °FLight rain. Fog.14 mph94%30.21 "Hg2 mi
3:00 pm59 °FLight rain. Mostly cloudy.10 mph94%30.21 "Hg3 mi
2:00 pm63 °FMostly cloudy.15 mph83%30.18 "Hg6 mi
1:00 pm63 °FFog.16 mph88%30.18 "Hg3 mi
12:00 pm64 °FMostly cloudy.18 mph83%30.18 "Hg5 mi
11:00 am64 °FMostly cloudy.15 mph88%30.18 "Hg4 mi
10:00 am63 °FLight rain. Mostly cloudy.9 mph100%30.18 "Hg2 mi
9:00 am64 °FLight rain. Mostly cloudy.10 mph94%30.15 "Hg2 mi
8:00 am64 °FLight rain. Mostly cloudy.14 mph94%30.12 "Hg2 mi
7:00 am66 °FLight rain. Fog.9 mph94%30.09 "Hg2 mi
6:15 am66 °FLight rain. Fog.8 mph100%30.07 "Hg2 mi
6:00 am68 °FFog.7 mph94%30.04 "Hg3 mi
Weather by CustomWeather, © 2019

See weather overview